Location: Fours
(44.3167°N, 6.7000°E)
Time: 18:26:14
(UTC+00:00)

Cosmos 1356 - Pass Details

Date: 30 November 2020
Orbit: 441 x 444 km, 81.1° (Epoch: 22 January)

Event Time Altitude Azimuth Distance (km) Brightness Sun altitude
Rises 16:35:22 0° 349° (N) 2,450 7.0 -7.2°
Reaches altitude 10° 16:37:26 10° 349° (N) 1,575 6.0 -7.5°
Maximum altitude 16:40:52 89° 273° (W) 451 3.4 -8.1°
Drops below altitude 10° 16:44:17 10° 171° (S) 1,563 6.3 -8.6°
Sets 16:46:20 0° 171° (S) 2,428 7.3 -9.0°
